Location: Casteau
(50.5142°N, 4.0161°E)
Time: 02:49:47
(UTC+00:00)

Transit 2A - Pass Details

Date: 03 August 2021
Orbit: 594 x 964 km, 66.7° (Epoch: 27 September)

Event Time Altitude Azimuth Distance (km) Brightness Sun altitude
Rises 05:47:20 0° 210° (SSW) 2,841 8.6 12.9°
Reaches altitude 10° 05:49:31 10° 209° (SSW) 1,963 7.8 13.3°
Maximum altitude 05:53:54 77° 125° (SE) 662 6.1 13.9°
Drops below altitude 10° 05:58:40 10° 39° (NE) 2,134 9.2 14.7°
Sets 06:01:07 0° 38° (NE) 3,111 9.9 15.1°
